SV2RCK-13 Weather Reports


time (UTC)temp
F
wind
direction
speed
knots
gust
knots
rain 1hr
in
rain 24hr
in
rain mn
in
humidity
%
barometer
mb
20260906052004 70 48 1.7 1.7 0.00 0.00 0.00 42 1015.9
20260906051504 71 299 1.7 1.7 0.00 0.00 0.00 41 1015.9
20260906051004 71 43 4.3 4.3 0.00 0.00 0.00 41 1015.6
20260906050505 70 75 0.0 0.0 0.00 0.00 0.00 42 1015.6
20260906050005 70 276 0.0 0.0 0.00 0.00 0.00 43 1015.6
20260906045504 70 107 0.0 0.0 0.00 0.00 0.00 42 1015.9
20260906045004 69 143 0.0 0.0 0.00 0.00 0.00 43 1015.9
20260906044504 68 142 0.0 0.0 0.00 0.00 0.00 43 1015.6
20260906044005 68 113 1.7 1.7 0.00 0.00 0.00 45 1015.6
20260906043505 68 150 0.0 0.0 0.00 0.00 0.00 44 1015.6
20260906043004 67 150 0.9 0.9 0.00 0.00 0.00 45 1015.6
20260906042504 68 74 1.7 1.7 0.00 0.00 0.00 45 1015.2
20260906042004 69 192 0.9 0.9 0.00 0.00 0.00 44 1015.6
20260906041504 69 216 1.7 1.7 0.00 0.00 0.00 43 1015.6
20260906041004 69 288 0.9 0.9 0.00 0.00 0.00 42 1015.2
20260906040504 70 288 1.7 1.7 0.00 0.00 0.00 41 1015.6
20260906040004 70 298 3.5 4.3 0.00 0.00 0.00 42 1015.2
20260906035504 69 294 1.7 1.7 0.00 0.00 0.00 42 1015.2
20260906035004 69 299 1.7 1.7 0.00 0.00 0.00 43 1015.2
20260906034504 69 299 0.0 0.0 0.00 0.00 0.00 44 1015.2
20260906034004 69 299 0.0 0.0 0.00 0.00 0.00 43 1015.2
20260906033504 70 299 0.0 0.0 0.00 0.00 0.00 42 1014.9
20260906033004 71 299 0.0 0.0 0.00 0.00 0.00 41 1014.9
20260906032504 71 300 1.7 1.7 0.00 0.00 0.00 41 1014.9
20260906032004 70 298 1.7 1.7 0.00 0.00 0.00 41 1014.9
20260906031504 70 299 1.7 1.7 0.00 0.00 0.00 41 1014.9
20260906031004 69 312 1.7 1.7 0.00 0.00 0.00 43 1014.9
20260906030504 69 312 0.0 0.0 0.00 0.00 0.00 45 1014.9
20260906030004 69 312 0.0 0.0 0.00 0.00 0.00 45 1014.9
20260906025504 69 312 0.0 0.0 0.00 0.00 0.00 44 1014.9
20260906025004 70 312 0.0 0.0 0.00 0.00 0.00 44 1014.9
20260906024504 70 312 0.0 0.0 0.00 0.00 0.00 44 1014.9
20260906024004 70 312 0.0 0.0 0.00 0.00 0.00 44 1014.9
20260906023504 69 312 0.0 0.0 0.00 0.00 0.00 44 1014.9
20260906023004 69 312 0.0 0.0 0.00 0.00 0.00 44 1014.9
20260906022504 70 312 0.0 0.0 0.00 0.00 0.00 45 1014.6
20260906022004 70 312 0.0 0.0 0.00 0.00 0.00 45 1014.9
20260906021504 70 312 0.0 0.0 0.00 0.00 0.00 46 1014.9
20260906021004 70 312 0.0 0.0 0.00 0.00 0.00 46 1014.9
20260906020504 70 312 0.0 0.0 0.00 0.00 0.00 45 1014.9
20260906020004 70 312 0.0 0.0 0.00 0.00 0.00 46 1014.9
20260906015504 70 312 0.9 0.9 0.00 0.00 0.00 45 1014.9
20260906015004 71 312 0.9 0.9 0.00 0.00 0.00 44 1014.9
20260906014504 70 312 0.9 0.9 0.00 0.00 0.00 44 1014.9
20260906014004 70 312 0.0 0.0 0.00 0.00 0.00 45 1014.9
20260906013504 71 312 0.0 0.0 0.00 0.00 0.00 45 1014.9
20260906013004 71 312 1.7 1.7 0.00 0.00 0.00 44 1014.9
20260906012504 71 312 1.7 1.7 0.00 0.00 0.00 44 1014.9
20260906012004 71 312 0.0 0.0 0.00 0.00 0.00 43 1014.9
20260906011504 71 312 0.9 0.9 0.00 0.00 0.00 43 1014.9
20260906011004 71 312 0.0 0.0 0.00 0.00 0.00 43 1014.9
20260906010504 71 312 0.0 0.0 0.00 0.00 0.00 43 1014.9
20260906010004 71 312 1.7 1.7 0.00 0.00 0.00 42 1014.9
20260906005505 71 312 0.0 0.0 0.00 0.00 0.00 44 1014.9
20260906005005 71 312 0.9 0.9 0.00 0.00 0.00 44 1014.9
20260906004505 71 312 0.0 0.0 0.00 0.00 0.00 44 1014.9
20260906004005 71 312 0.0 0.0 0.00 0.00 0.00 43 1014.6
20260906003504 70 312 1.7 1.7 0.00 0.00 0.00 45 1014.9
20260906003004 71 341 0.9 0.9 0.00 0.00 0.00 47 1014.9
20260906002504 71 341 0.0 0.0 0.00 0.00 0.00 46 1014.9
20260906002004 71 341 1.7 1.7 0.00 0.00 0.00 45 1014.9
20260906001508 71 341 0.0 0.0 0.00 0.00 0.00 44 1014.9
20260906001004 71 341 0.9 0.9 0.00 0.00 0.00 44 1015.2
20260906000504 71 341 0.9 0.9 0.00 0.00 0.00 45 1015.2
20260906000004 71 342 0.0 0.0 0.00 0.00 0.00 44 1014.9
20260905235505 70 348 0.0 0.0 0.00 0.00 0.00 44 1014.9
20260905235005 70 348 0.0 0.0 0.00 0.00 0.00 45 1015.2
20260905234504 71 348 0.0 0.0 0.00 0.00 0.00 45 1014.9
20260905234004 71 348 0.0 0.0 0.00 0.00 0.00 44 1014.9
20260905233504 71 348 1.7 1.7 0.00 0.00 0.00 45 1014.9
20260905233004 71 349 0.0 0.0 0.00 0.00 0.00 45 1014.9
20260905232504 71 349 0.0 0.0 0.00 0.00 0.00 44 1014.9
20260905232004 72 349 0.0 0.0 0.00 0.00 0.00 44 1014.9
20260905231504 72 349 0.0 0.0 0.00 0.00 0.00 44 1014.9
20260905231004 72 349 0.0 0.0 0.00 0.00 0.00 43 1015.2
20260905230504 72 349 0.0 0.0 0.00 0.00 0.00 43 1014.9
20260905230004 72 349 0.0 0.0 0.00 0.00 0.00 43 1014.9
20260905225504 72 349 0.0 0.0 0.00 0.00 0.00 42 1014.9
20260905225004 72 349 0.0 0.0 0.00 0.00 0.00 42 1014.9
20260905224504 72 306 0.0 0.0 0.00 0.00 0.00 44 1015.2
20260905224004 72 306 0.0 0.0 0.00 0.00 0.00 43 1015.2
20260905223504 72 306 0.0 0.0 0.00 0.00 0.00 43 1015.2
20260905223005 72 306 0.0 0.0 0.00 0.00 0.00 43 1015.2
20260905222504 72 306 0.0 0.0 0.00 0.00 0.00 43 1015.2
20260905222004 72 306 0.0 0.0 0.00 0.00 0.00 42 1015.2
20260905221505 72 306 0.0 0.0 0.00 0.00 0.00 44 1015.2
20260905221004 72 306 1.7 1.7 0.00 0.00 0.00 43 1015.2
20260905220504 72 12 0.9 0.9 0.00 0.00 0.00 44 1015.6
20260905220004 72 12 0.0 0.0 0.00 0.00 0.00 44 1014.9
20260905215504 73 10 0.9 0.9 0.00 0.00 0.00 44 1014.9
20260905215004 73 9 0.0 0.0 0.00 0.00 0.00 43 1015.2
20260905214504 73 9 0.0 0.0 0.00 0.00 0.00 43 1015.2
20260905214004 73 9 0.0 0.0 0.00 0.00 0.00 43 1015.2
20260905213505 73 9 0.0 0.0 0.00 0.00 0.00 43 1015.2
20260905213004 73 9 1.7 1.7 0.00 0.00 0.00 43 1015.2
20260905212504 73 294 0.0 0.0 0.00 0.00 0.00 42 1015.2
20260905212004 73 294 0.9 0.9 0.00 0.00 0.00 42 1015.2
20260905211504 72 204 0.0 0.0 0.00 0.00 0.00 44 1015.2
20260905211004 73 204 0.0 0.0 0.00 0.00 0.00 43 1015.6
20260905210504 74 204 0.0 0.0 0.00 0.00 0.00 43 1015.6
20260905210005 74 204 0.0 0.0 0.00 0.00 0.00 42 1015.2
20260905205504 74 204 0.0 0.0 0.00 0.00 0.00 42 1015.2
20260905205004 74 204 0.0 0.0 0.00 0.00 0.00 43 1015.2
20260905204504 74 204 0.0 0.0 0.00 0.00 0.00 41 1015.2
20260905204004 74 204 0.0 0.0 0.00 0.00 0.00 41 1014.9
20260905203504 73 204 0.0 0.0 0.00 0.00 0.00 43 1015.2
20260905203004 74 204 0.0 0.0 0.00 0.00 0.00 42 1015.2
20260905202504 75 204 0.0 0.0 0.00 0.00 0.00 41 1014.9
20260905202004 74 204 0.0 0.0 0.00 0.00 0.00 41 1015.2
20260905201504 74 204 0.0 0.0 0.00 0.00 0.00 41 1015.2
20260905201004 75 204 0.0 0.0 0.00 0.00 0.00 40 1015.2
20260905200504 75 204 0.0 0.0 0.00 0.00 0.00 39 1015.2
20260905200004 74 204 0.0 0.0 0.00 0.00 0.00 40 1015.2
20260905195504 74 204 0.0 0.0 0.00 0.00 0.00 40 1015.6
20260905195004 75 204 0.0 0.0 0.00 0.00 0.00 39 1014.9
20260905194504 75 204 0.0 0.0 0.00 0.00 0.00 37 1015.2
20260905194004 76 204 0.0 0.0 0.00 0.00 0.00 36 1015.2
20260905193504 77 204 0.0 0.0 0.00 0.00 0.00 36 1014.9
20260905193004 77 204 0.0 0.0 0.00 0.00 0.00 37 1015.2
20260905192505 77 204 1.7 1.7 0.00 0.00 0.00 35 1015.2
20260905192005 76 204 1.7 1.7 0.00 0.00 0.00 36 1015.2
20260905191504 77 204 0.0 0.0 0.00 0.00 0.00 37 1014.9
20260905191005 76 204 0.0 0.0 0.00 0.00 0.00 35 1014.9
20260905190504 76 204 0.0 0.0 0.00 0.00 0.00 37 1014.9
20260905190004 76 204 0.0 0.0 0.00 0.00 0.00 38 1014.9
20260905185504 77 204 0.0 0.0 0.00 0.00 0.00 38 1014.9
20260905185004 77 204 0.0 0.0 0.00 0.00 0.00 36 1014.9
20260905184504 78 204 0.0 0.0 0.00 0.00 0.00 37 1014.9
20260905184005 78 204 0.0 0.0 0.00 0.00 0.00 37 1014.9
20260905183504 78 204 0.0 0.0 0.00 0.00 0.00 37 1014.9
20260905183005 78 204 0.0 0.0 0.00 0.00 0.00 36 1014.9
20260905182505 78 204 0.0 0.0 0.00 0.00 0.00 36 1014.9
20260905182005 79 204 0.0 0.0 0.00 0.00 0.00 35 1014.6
20260905181504 79 204 0.0 0.0 0.00 0.00 0.00 34 1014.6
20260905181005 79 204 0.0 0.0 0.00 0.00 0.00 34 1014.6
20260905180505 79 204 0.0 0.0 0.00 0.00 0.00 34 1014.9
20260905180005 79 204 0.0 0.0 0.00 0.00 0.00 35 1014.6
20260905175504 79 204 1.7 1.7 0.00 0.00 0.00 33 1014.6
20260905175005 78 203 0.0 0.0 0.00 0.00 0.00 36 1014.6
20260905174505 79 203 0.0 0.0 0.00 0.00 0.00 34 1014.6
20260905174004 79 203 0.0 0.0 0.00 0.00 0.00 35 1014.2
20260905173504 79 203 0.0 0.0 0.00 0.00 0.00 34 1014.2
20260905173004 80 203 0.0 0.0 0.00 0.00 0.00 34 1014.2
20260905172504 80 203 0.0 0.0 0.00 0.00 0.00 31 1013.9
20260905172004 80 203 0.9 0.9 0.00 0.00 0.00 32 1014.2
20260905171504 80 203 0.0 0.0 0.00 0.00 0.00 33 1014.2
20260905171004 81 203 0.0 0.0 0.00 0.00 0.00 32 1014.2
20260905170505 81 161 0.9 0.9 0.00 0.00 0.00 32 1014.2
20260905170004 81 160 0.0 0.0 0.00 0.00 0.00 31 1014.2
20260905165504 82 160 0.9 0.9 0.00 0.00 0.00 31 1014.2
20260905165005 82 160 1.7 1.7 0.00 0.00 0.00 30 1013.9
20260905164504 82 111 0.0 0.0 0.00 0.00 0.00 30 1013.9
20260905164004 83 111 0.0 0.0 0.00 0.00 0.00 32 1013.9
20260905163504 84 111 0.9 0.9 0.00 0.00 0.00 30 1014.2
20260905163004 84 108 1.7 1.7 0.00 0.00 0.00 29 1013.9
20260905162504 84 120 1.7 1.7 0.00 0.00 0.00 29 1013.9
20260905162004 85 129 1.7 1.7 0.00 0.00 0.00 28 1013.9
20260905161504 85 178 1.7 1.7 0.00 0.00 0.00 28 1013.9
20260905161004 85 133 1.7 1.7 0.00 0.00 0.00 28 1013.9
20260905160504 85 140 1.7 1.7 0.00 0.00 0.00 28 1013.9
20260905160004 86 173 1.7 1.7 0.00 0.00 0.00 27 1013.9
20260905155504 86 90 3.5 4.3 0.00 0.00 0.00 27 1013.9
20260905155004 86 113 1.7 1.7 0.00 0.00 0.00 27 1013.9
20260905154505 87 127 0.9 0.9 0.00 0.00 0.00 26 1013.9
20260905154005 87 193 3.5 3.5 0.00 0.00 0.00 26 1013.9
20260905153504 87 112 1.7 1.7 0.00 0.00 0.00 26 1013.9
20260905153004 86 91 1.7 1.7 0.00 0.00 0.00 26 1013.9
20260905152505 86 72 2.6 2.6 0.00 0.00 0.00 23 1013.9
20260905152004 86 36 1.7 1.7 0.00 0.00 0.00 24 1013.9
20260905151504 86 30 2.6 2.6 0.00 0.00 0.00 24 1013.9
20260905151004 86 65 3.5 3.5 0.00 0.00 0.00 24 1013.9
20260905150505 87 49 4.3 4.3 0.00 0.00 0.00 23 1013.9
20260905150005 88 314 1.7 1.7 0.00 0.00 0.00 21 1013.9
20260905145504 87 37 4.3 5.2 0.00 0.00 0.00 22 1013.9
20260905145004 86 348 4.3 4.3 0.00 0.00 0.00 22 1013.9
20260905144504 87 0 2.6 2.6 0.00 0.00 0.00 21 1013.9
20260905144004 87 30 4.3 5.2 0.00 0.00 0.00 20 1013.9
20260905143505 88 64 3.5 3.5 0.00 0.00 0.00 21 1013.9
20260905143005 88 186 1.7 1.7 0.00 0.00 0.00 20 1013.9
20260905142505 87 90 1.7 1.7 0.00 0.00 0.00 20 1014.2
20260905142005 87 64 4.3 4.3 0.00 0.00 0.00 22 1013.9
20260905141504 87 36 3.5 4.3 0.00 0.00 0.00 21 1013.9
20260905141004 88 190 3.5 3.5 0.00 0.00 0.00 21 1014.2
20260905140504 87 318 1.7 1.7 0.00 0.00 0.00 22 1014.2
20260905140004 87 102 4.3 4.3 0.00 0.00 0.00 22 1014.2
20260905135504 86 66 3.5 3.5 0.00 0.00 0.00 23 1014.2
20260905135004 88 59 4.3 4.3 0.00 0.00 0.00 22 1014.2
20260905134504 87 235 2.6 2.6 0.00 0.00 0.00 22 1014.2
20260905134004 87 30 1.7 1.7 0.00 0.00 0.00 23 1014.6
20260905133504 87 137 2.6 2.6 0.00 0.00 0.00 22 1014.6
20260905133005 86 74 1.7 1.7 0.00 0.00 0.00 24 1014.2
20260905132504 87 30 3.5 3.5 0.00 0.00 0.00 24 1014.6
20260905132004 88 271 1.7 1.7 0.00 0.00 0.00 24 1014.6
20260905131504 87 265 2.6 2.6 0.00 0.00 0.00 24 1014.6
20260905131005 87 228 2.6 2.6 0.00 0.00 0.00 25 1014.6
20260905130504 86 204 1.7 1.7 0.00 0.00 0.00 24 1014.6
20260905130005 86 294 1.7 1.7 0.00 0.00 0.00 26 1014.9
20260905125505 86 180 0.9 0.9 0.00 0.00 0.00 25 1014.6
20260905125005 86 239 2.6 2.6 0.00 0.00 0.00 26 1014.9
20260905124504 86 178 3.5 4.3 0.00 0.00 0.00 26 1014.9
20260905124004 86 102 1.7 1.7 0.00 0.00 0.00 26 1014.9
20260905123504 86 132 1.7 1.7 0.00 0.00 0.00 26 1014.9
20260905123005 86 132 3.5 4.3 0.00 0.00 0.00 26 1014.9
20260905122505 86 108 1.7 1.7 0.00 0.00 0.00 27 1014.9
20260905122004 87 180 4.3 5.2 0.00 0.00 0.00 25 1014.9
20260905121505 86 241 1.7 1.7 0.00 0.00 0.00 26 1014.9
20260905121005 86 340 1.7 1.7 0.00 0.00 0.00 28 1014.9
20260905120504 86 209 1.7 1.7 0.00 0.00 0.00 25 1015.2
20260905120004 86 264 1.7 1.7 0.00 0.00 0.00 26 1015.2
20260905115504 86 201 3.5 3.5 0.00 0.00 0.00 26 1015.2
20260905115004 84 229 1.7 1.7 0.00 0.00 0.00 27 1015.2
20260905114504 84 282 5.2 5.2 0.00 0.00 0.00 29 1015.6
20260905114004 85 228 2.6 2.6 0.00 0.00 0.00 28 1015.6
20260905113505 84 308 4.3 4.3 0.00 0.00 0.00 29 1015.6
20260905113005 85 228 3.5 3.5 0.00 0.00 0.00 27 1015.6
20260905112505 85 137 3.5 3.5 0.00 0.00 0.00 27 1015.6
20260905112004 84 120 3.5 3.5 0.00 0.00 0.00 27 1015.6
20260905111504 83 142 0.0 0.0 0.00 0.00 0.00 28 1015.6
20260905111004 84 150 2.6 2.6 0.00 0.00 0.00 28 1015.6
20260905110504 83 172 3.5 3.5 0.00 0.00 0.00 29 1015.6
20260905110004 84 125 4.3 4.3 0.00 0.00 0.00 29 1015.9
20260905105504 83 168 4.3 5.2 0.00 0.00 0.00 30 1015.6
20260905105004 82 174 5.2 5.2 0.00 0.00 0.00 29 1015.9
20260905104504 83 152 3.5 3.5 0.00 0.00 0.00 31 1015.9
20260905104004 83 107 2.6 2.6 0.00 0.00 0.00 31 1015.6
20260905103504 82 198 3.5 3.5 0.00 0.00 0.00 31 1015.9
20260905103004 83 162 4.3 4.3 0.00 0.00 0.00 31 1015.9
20260905102504 82 64 5.2 6.1 0.00 0.00 0.00 31 1015.6
20260905102004 81 294 1.7 1.7 0.00 0.00 0.00 32 1015.9
20260905101505 82 167 3.5 3.5 0.00 0.00 0.00 31 1015.9
20260905101004 81 84 4.3 4.3 0.00 0.00 0.00 32 1015.9
20260905100504 82 179 1.7 1.7 0.00 0.00 0.00 31 1015.9
20260905100004 82 180 2.6 2.6 0.00 0.00 0.00 32 1016.3
20260905095504 82 216 3.5 4.3 0.00 0.00 0.00 32 1015.9
20260905095005 82 32 1.7 1.7 0.00 0.00 0.00 32 1016.3
20260905094505 81 166 1.7 1.7 0.00 0.00 0.00 31 1016.3
20260905094005 81 174 6.1 6.1 0.00 0.00 0.00 32 1015.9
20260905093504 81 183 1.7 1.7 0.00 0.00 0.00 33 1016.3
20260905093005 81 168 0.9 0.9 0.00 0.00 0.00 34 1016.3
20260905092505 81 86 3.5 3.5 0.00 0.00 0.00 30 1016.3
20260905092005 82 213 1.7 1.7 0.00 0.00 0.00 28 1016.3
20260905091504 81 155 1.7 1.7 0.00 0.00 0.00 27 1016.3
20260905091004 80 227 3.5 3.5 0.00 0.00 0.00 30 1016.3
20260905090504 80 242 3.5 4.3 0.00 0.00 0.00 30 1016.3
20260905090004 80 18 1.7 1.7 0.00 0.00 0.00 30 1016.3
20260905085504 79 222 3.5 4.3 0.00 0.00 0.00 32 1016.6
20260905085004 79 253 2.6 2.6 0.00 0.00 0.00 31 1016.3
20260905084504 78 25 7.0 7.0 0.00 0.00 0.00 33 1016.6
20260905084005 80 288 3.5 3.5 0.00 0.00 0.00 32 1016.3
20260905083504 80 156 1.7 1.7 0.00 0.00 0.00 31 1016.6
20260905083004 80 32 1.7 1.7 0.00 0.00 0.00 32 1016.6
20260905082504 78 54 1.7 1.7 0.00 0.00 0.00 34 1016.6
20260905082005 78 48 5.2 6.1 0.00 0.00 0.00 34 1016.6
20260905081504 78 36 3.5 3.5 0.00 0.00 0.00 34 1016.6
20260905081003 78 312 1.7 1.7 0.00 0.00 0.00 34 1016.6
20260905080505 79 36 5.2 6.1 0.00 0.00 0.00 35 1016.6
20260905080004 78 18 4.3 5.2 0.00 0.00 0.00 35 1016.6
20260905075504 78 0 4.3 5.2 0.00 0.00 0.00 35 1016.6
20260905075004 78 42 4.3 4.3 0.00 0.00 0.00 36 1016.6
20260905074505 77 30 1.7 1.7 0.00 0.00 0.00 37 1016.6
20260905074004 77 36 5.2 6.1 0.00 0.00 0.00 37 1016.6
20260905073504 76 20 4.3 5.2 0.00 0.00 0.00 37 1016.6
20260905073004 77 20 6.1 6.1 0.00 0.00 0.00 37 1016.6
20260905072504 77 336 5.2 5.2 0.00 0.00 0.00 37 1016.6
20260905072004 78 59 1.7 1.7 0.00 0.00 0.00 36 1016.3
20260905071504 77 18 1.7 1.7 0.00 0.00 0.00 36 1016.3
20260905071004 77 354 3.5 3.5 0.00 0.00 0.00 37 1016.3
20260905070504 77 36 1.7 1.7 0.00 0.00 0.00 35 1016.6
20260905070005 76 37 3.5 3.5 0.00 0.00 0.00 36 1016.3
20260905065504 76 52 1.7 1.7 0.00 0.00 0.00 38 1016.3
20260905065004 76 30 2.6 2.6 0.00 0.00 0.00 38 1016.3
20260905064504 76 270 3.5 3.5 0.00 0.00 0.00 37 1016.3
20260905064004 75 60 1.7 1.7 0.00 0.00 0.00 37 1016.3
20260905063504 75 24 7.8 9.6 0.00 0.00 0.00 39 1016.3
20260905063004 74 18 3.5 4.3 0.00 0.00 0.00 39 1016.3
20260905062504 74 272 3.5 3.5 0.00 0.00 0.00 39 1016.3
20260905062004 75 276 0.0 0.0 0.00 0.00 0.00 39 1016.6
20260905061504 75 73 0.0 0.0 0.00 0.00 0.00 38 1016.6
20260905061004 77 157 1.7 1.7 0.00 0.00 0.00 37 1016.6
20260905060504 76 168 0.9 0.9 0.00 0.00 0.00 35 1016.6
20260905060004 74 168 0.9 0.9 0.00 0.00 0.00 39 1016.6
20260905055504 73 168 1.7 1.7 0.00 0.00 0.00 41 1016.6
20260905055004 72 178 1.7 1.7 0.00 0.00 0.00 42 1016.6
20260905054805 0 0 0.0 0.0 0.00 0.00 0.00 100
20260905054004 71 192 1.7 1.7 0.00 0.00 0.00 43 1016.6
20260905053504 71 188 1.7 1.7 0.00 0.00 0.00 43 1016.6
20260905053004 72 108 1.7 1.7 0.00 0.00 0.00 42 1016.6
20260905052504 71 144 0.0 0.0 0.00 0.00 0.00 40 1016.3